[[{"header":{"parameterUnit":"m.s-1","parameterCategory":1,"la1":30.2991,"la2":30.254,"lo1":-89.0895,"lo2":-89.0444,"dy":0.0017,"dx":0.0017,"nx":28,"ny":28,"refTime":"2024-07-21T09:00:00:Z","depth":0,"parameterNumber":2,"parameterNumberName":"U-component_of_WINDS"},"data":[0,0,0,0,0,0,0,0,0,0,0,0,0,0,0,0,0,0,0,0,0,0,0,0,0,0,0,0,0,0,0,0,0,0,0,0,0,0,0,0,0,0,0,0,0,0,0,0,0,0,0,0,0,0,0,0,0,0,3.1931,3.1932,0,3.1945,3.1945,3.1945,3.1876,3.1874,3.1872,3.187,3.1884,3.1886,3.1888,0,0,0,0,0,0,0,0,0,0,0,0,0,3.1844,3.1846,3.1931,3.1932,3.1932,3.1945,3.1945,3.1945,3.1876,3.1874,3.1871,3.1869,3.1883,3.1885,3.1888,0,0,0,0,0,0,0,0,0,0,0,0,0,3.1872,3.1847,3.1931,3.1899,3.1896,3.1945,3.1945,3.1945,3.1876,3.1873,3.187,3.1868,3.1882,3.1885,3.1888,3.1969,0,0,3.1899,3.19,0,0,0,0,0,0,0,0,3.1871,3.1876,3.1903,3.1901,3.1898,3.1905,3.1919,3.1953,3.1877,3.1884,3.187,3.1866,3.1893,3.1895,3.1905,3.197,3.197,3.1899,3.1901,3.1902,3.1903,0,0,0,0,0,0,0,3.1869,3.1875,3.1937,3.1904,3.1901,3.1883,3.1884,3.1925,3.1905,3.1883,3.1878,3.1881,3.1891,3.1902,3.1904,3.197,3.1899,3.1902,3.1904,3.1905,3.2097,3.21,0,0,0,0,0,0,3.1872,3.1874,3.1936,3.1937,3.1877,3.1887,3.1888,3.1906,3.1905,3.1901,3.1883,3.1877,3.1897,3.1901,3.1905,3.1994,3.1902,3.1906,3.1907,3.2094,3.2098,3.2101,0,0,0,0,0,0,3.187,3.1878,3.1936,3.1904,3.191,3.1892,3.1913,3.1908,3.1918,3.1905,3.1901,3.1897,3.1895,3.19,3.1952,3.1994,3.1907,3.191,3.209,3.2095,3.2099,3.2178,0,0,0,0,0,0,3.1868,3.1878,3.1909,3.1905,3.1912,3.1984,3.1916,3.191,3.1924,3.1916,3.1917,3.1914,3.1893,3.1948,3.1956,3.1997,3.1913,3.2086,3.2093,3.2098,3.2171,3.2184,3.2196,0,0,0,0,0,3.1865,3.1931,3.1911,3.1919,3.195,3.1987,3.199,3.1965,3.1928,3.1958,3.1949,3.1914,3.1989,3.1954,3.1962,3.2005,3.2084,3.2091,3.2098,3.2166,3.2182,3.2195,0,0,0,0,0,0,3.1941,3.193,3.1907,3.1975,3.1982,3.1975,3.2012,3.1983,3.2001,3.1994,3.1961,3.1962,3.2019,3.2018,3.1979,3.2081,3.203,3.2039,3.2079,3.2094,3.2106,3.2103,3.1915,0,0,0,0,0,3.1966,3.1997,3.1986,3.2046,3.2051,3.2031,3.2046,3.2025,3.2032,3.2034,3.2029,3.2037,3.2061,3.2078,3.2101,3.2172,3.2169,3.2206,3.2218,3.2228,3.2235,3.2268,3.2283,3.2124,3.2124,3.2124,0,0,3.2017,3.2015,3.2037,3.2061,3.2064,3.2095,3.2034,3.2071,3.2092,3.204,3.2087,3.2085,3.209,3.2151,3.2178,3.2152,3.2278,3.2237,3.2245,3.2246,3.2277,3.2292,3.2305,3.2129,3.2128,3.2127,0,0,3.2125,3.2129,3.2177,3.2181,3.2186,3.2172,3.2183,3.218,3.2175,3.2223,3.2183,3.2209,3.2254,3.2257,3.2266,3.2373,3.234,3.2381,3.2444,3.2477,3.2489,3.25,3.2534,3.2547,3.2389,3.2389,3.239,0,3.2188,3.2233,3.2206,3.2243,3.2253,3.2207,3.2254,3.2259,3.2272,3.228,3.2251,3.2303,3.2304,3.2363,3.2388,3.2399,3.2408,3.2379,3.249,3.25,3.251,3.2542,3.2555,3.2394,3.2393,3.2393,3.2393,0,3.2308,3.234,3.2378,3.2389,3.2404,3.2447,3.2424,3.2443,3.2421,3.241,3.2457,3.2457,3.2476,3.2489,3.2469,3.2545,3.2528,3.2496,3.2443,3.253,3.2559,3.2572,3.2401,3.2399,3.2398,3.2396,0,0,3.2464,3.2457,3.2471,3.2473,3.2475,3.2498,3.2538,3.2556,3.2571,3.2581,3.2611,3.2649,3.2617,3.2627,3.2607,3.2636,3.2715,3.2599,3.2599,3.2617,3.2794,3.2815,3.283,3.2695,3.2698,3.27,3.2792,0,3.2565,3.2631,3.2606,3.2673,3.27,3.2656,3.2689,3.2693,3.2684,3.2705,3.2694,3.2719,3.2679,3.2683,3.2711,3.27,3.275,3.2694,3.272,3.2721,3.2716,3.2846,3.2869,3.2956,3.2803,3.2805,3.2807,0,3.2693,3.2705,3.2775,3.2767,3.2778,3.2809,3.2821,3.2843,3.2845,3.2836,3.2845,3.2818,3.2854,3.2805,3.2853,3.2815,3.2825,3.2822,3.2824,3.2823,3.2767,3.2843,3.2984,3.2995,3.2825,3.2824,3.2823,0,3.2793,3.2828,3.2873,3.2877,3.2871,3.2893,3.2892,3.2892,3.2903,3.2914,3.292,3.2937,3.2945,3.2958,3.2935,3.2902,3.2985,3.2935,3.2976,3.2977,3.2993,3.2991,3.3132,3.3007,3.3006,3.3006,3.3006,0,3.2907,3.295,3.2917,3.2944,3.299,3.2961,3.3008,3.3002,3.3001,3.3025,3.299,3.3013,3.2983,3.3004,3.2987,3.3027,3.3032,3.3024,3.3018,3.3025,3.3025,3.3028,3.3019,3.301,3.3009,3.3008,3.3008,0,3.3025,3.3006,3.3051,3.3041,3.3039,3.3073,3.3064,3.3088,3.3076,3.3106,3.3112,3.3093,3.3114,3.3094,3.3115,3.3103,3.3156,3.3144,3.3154,3.3149,3.319,3.3184,3.3334,3.335,3.3218,3.322,3.3221,0,3.3097,3.3128,3.3121,3.3134,3.3134,3.3156,3.3166,3.3139,3.3151,3.3155,3.3178,3.3197,3.3209,3.3246,3.3234,3.3249,3.3234,3.3285,3.3236,3.324,3.3229,3.3226,3.3227,3.3294,3.3296,3.3297,3.3298,0,3.3225,3.3212,3.3229,3.3241,3.3254,3.3263,3.3268,3.3281,3.3253,3.3268,3.3289,3.3299,3.3319,3.3337,3.3348,3.3346,3.3316,3.3314,3.3324,3.3329,3.3331,3.3326,3.3177,3.331,3.3309,3.3308,3.3307,3.3307,3.3319,3.3343,3.334,3.3358,3.3359,3.3365,3.3385,3.3375,3.3392,3.3405,3.3388,3.3413,3.3412,3.3424,3.3425,3.3444,3.3422,3.3437,3.344,3.3443,3.3447,3.3332,3.3446,3.3446,3.3446,3.3445,3.3445,0,3.344,3.3435,3.3453,3.346,3.3474,3.3446,3.345,3.3463,3.3485,3.3487,3.35,3.3522,3.3539,3.3527,3.3541,3.3557,3.3544,3.3562,3.3558,3.3557,3.3468,3.3456,3.3572,3.3572,3.3572,3.3572,3.3572,3.3572,3.3504,3.3542,3.353,3.3567,3.3562,3.3585,3.3589,3.3594,3.3594,3.362,3.3633,3.3626,3.3621,3.3634,3.3647,3.3643,3.3648,3.367,3.3661,3.3577,3.3564,3.3552,3.354,3.3672,3.3672,3.3748,3.3748,3.3749]},{"header":{"parameterUnit":"m.s-1","parameterCategory":1,"la1":30.2991,"la2":30.254,"lo1":-89.0895,"lo2":-89.0444,"dy":0.0017,"dx":0.0017,"nx":28,"ny":28,"refTime":"2024-07-21T09:00:00:Z","depth":0,"parameterNumber":3,"parameterNumberName":"V-component_of_WINDS"},"data":[0,0,0,0,0,0,0,0,0,0,0,0,0,0,0,0,0,0,0,0,0,0,0,0,0,0,0,0,0,0,0,0,0,0,0,0,0,0,0,0,0,0,0,0,0,0,0,0,0,0,0,0,0,0,0,0,0,0,3.2751,3.2752,0,3.2875,3.2876,3.2877,3.287,3.2868,3.2866,3.2865,3.2988,3.2993,3.2998,0,0,0,0,0,0,0,0,0,0,0,0,0,3.2503,3.2508,3.275,3.2752,3.2754,3.2874,3.2876,3.2878,3.287,3.2868,3.2866,3.2864,3.2987,3.2993,3.2999,0,0,0,0,0,0,0,0,0,0,0,0,0,3.2617,3.2509,3.275,3.2764,3.2767,3.2874,3.2876,3.2878,3.2871,3.2868,3.2865,3.2863,3.2985,3.2992,3.2999,3.3099,0,0,3.3022,3.3025,0,0,0,0,0,0,0,0,3.2611,3.2626,3.2761,3.2764,3.2767,3.2854,3.2834,3.2952,3.2871,3.2831,3.2864,3.2861,3.2946,3.2956,3.2985,3.3105,3.3111,3.3023,3.3027,3.3031,3.3033,0,0,0,0,0,0,0,3.2603,3.2621,3.2799,3.2763,3.2766,3.2763,3.2777,3.2857,3.2902,3.2834,3.2834,3.2849,3.2947,3.2978,3.2988,3.3112,3.3023,3.3029,3.3034,3.3037,3.3319,3.3322,0,0,0,0,0,0,3.2592,3.2614,3.2795,3.2803,3.2681,3.277,3.2785,3.2829,3.2901,3.291,3.2851,3.2848,3.2967,3.2979,3.2992,3.3113,3.3031,3.3038,3.3042,3.3316,3.332,3.3323,0,0,0,0,0,0,3.2587,3.2609,3.279,3.2709,3.2732,3.2777,3.2826,3.2832,3.2864,3.2914,3.2921,3.2875,3.2965,3.2982,3.3073,3.3118,3.3041,3.3048,3.3312,3.3317,3.3321,3.3357,0,0,0,0,0,0,3.258,3.2607,3.2646,3.271,3.2736,3.287,3.2829,3.2837,3.2877,3.2874,3.2938,3.2946,3.2964,3.3062,3.308,3.3126,3.3054,3.3309,3.3315,3.332,3.3352,3.3362,3.337,0,0,0,0,0,3.2571,3.2651,3.2648,3.267,3.2787,3.2873,3.2888,3.2907,3.2881,3.292,3.2952,3.2944,3.311,3.3071,3.3092,3.3141,3.3306,3.3313,3.3319,3.3347,3.336,3.337,0,0,0,0,0,0,3.259,3.2659,3.2657,3.276,3.2811,3.2871,3.2921,3.292,3.2979,3.2973,3.2995,3.3009,3.31,3.313,3.3085,3.3241,3.3204,3.3215,3.3218,3.323,3.324,3.323,3.306,0,0,0,0,0,3.2607,3.2672,3.2728,3.2813,3.2839,3.2876,3.2914,3.2925,3.2978,3.2999,3.3038,3.3088,3.3151,3.3193,3.3254,3.3356,3.3369,3.34,3.3409,3.3417,3.3426,3.3481,3.3495,3.3345,3.3345,3.3345,0,0,3.2641,3.2686,3.2726,3.2818,3.2859,3.2925,3.2894,3.2965,3.3014,3.3009,3.3098,3.3128,3.3185,3.3282,3.3327,3.331,3.347,3.3425,3.3431,3.3436,3.3489,3.3503,3.3516,3.335,3.3349,3.3348,0,0,3.2736,3.2778,3.2853,3.2894,3.2956,3.298,3.2998,3.3059,3.3079,3.3168,3.3166,3.3224,3.3333,3.3373,3.3409,3.3519,3.3513,3.3538,3.3587,3.364,3.3652,3.3662,3.3701,3.3714,3.3547,3.3547,3.3547,0,3.277,3.2871,3.2891,3.2963,3.3003,3.3003,3.3078,3.3117,3.3195,3.3222,3.3202,3.3339,3.3377,3.3483,3.351,3.3539,3.3559,3.3531,3.3649,3.366,3.367,3.3706,3.3721,3.355,3.3549,3.3549,3.3549,0,3.2909,3.2979,3.3031,3.3108,3.3154,3.3227,3.3257,3.3301,3.3308,3.3333,3.3423,3.347,3.354,3.3566,3.3573,3.3673,3.366,3.3644,3.3608,3.3686,3.3721,3.3735,3.3553,3.3552,3.3552,3.3551,0,0,3.302,3.3107,3.3126,3.316,3.3228,3.3282,3.3354,3.3423,3.346,3.3514,3.3574,3.3666,3.3652,3.3691,3.3703,3.375,3.3833,3.3728,3.373,3.3745,3.3944,3.3955,3.3971,3.383,3.3833,3.3835,3.3939,0,3.3122,3.3252,3.3272,3.3385,3.3449,3.3449,3.3512,3.356,3.3586,3.3642,3.367,3.3735,3.3712,3.3736,3.3782,3.3813,3.3873,3.3806,3.3885,3.3888,3.387,3.3989,3.4001,3.4097,3.3953,3.3955,3.3957,0,3.3258,3.3316,3.3436,3.3494,3.3522,3.3578,3.3643,3.3698,3.3751,3.3766,3.3811,3.3817,3.389,3.3851,3.3952,3.3906,3.3939,3.3959,3.3964,3.3971,3.3926,3.3999,3.4128,3.4142,3.3978,3.3977,3.3975,0,3.3325,3.3434,3.3519,3.3548,3.3619,3.3659,3.369,3.3741,3.3781,3.3837,3.3863,3.3927,3.3961,3.401,3.4032,3.4002,3.4132,3.4094,3.4145,3.4145,3.4172,3.417,3.4307,3.4195,3.4195,3.4194,3.4194,0,3.3436,3.3509,3.355,3.3603,3.3684,3.3706,3.3786,3.3816,3.3861,3.3918,3.3923,3.3976,3.4003,3.406,3.4078,3.4158,3.4174,3.4187,3.4191,3.4186,3.4184,3.4208,3.4201,3.4198,3.4197,3.4197,3.4196,0,3.3525,3.3556,3.3649,3.3708,3.3725,3.3782,3.3832,3.3883,3.3908,3.398,3.3998,3.4038,3.4105,3.4133,3.4215,3.4227,3.4319,3.4318,3.4301,3.4302,3.4351,3.4345,3.4507,3.4529,3.4403,3.4404,3.4405,0,3.3593,3.365,3.3715,3.3755,3.3787,3.385,3.3891,3.3915,3.3957,3.4022,3.4064,3.4132,3.4187,3.4294,3.4329,3.4392,3.4392,3.4444,3.4401,3.4395,3.4392,3.4388,3.4393,3.4452,3.4453,3.4454,3.4455,0,3.3711,3.3723,3.3783,3.3848,3.3897,3.3949,3.3999,3.4031,3.4062,3.4109,3.4179,3.4221,3.4306,3.4372,3.4437,3.4467,3.4466,3.4469,3.4483,3.4479,3.4467,3.4473,3.4322,3.4465,3.4464,3.4463,3.4462,3.4462,3.3791,3.3841,3.3895,3.396,3.4001,3.4048,3.4098,3.413,3.4189,3.426,3.427,3.4344,3.4395,3.4482,3.4515,3.4572,3.4559,3.458,3.4586,3.4591,3.4593,3.4458,3.4584,3.4584,3.4584,3.4584,3.4583,0,3.3908,3.3943,3.4003,3.4074,3.4125,3.4121,3.4177,3.422,3.4285,3.4333,3.4388,3.4467,3.4531,3.4572,3.4636,3.4674,3.4675,3.469,3.4687,3.4694,3.4602,3.4583,3.4688,3.4688,3.4688,3.4688,3.4688,3.4688,3.3975,3.4058,3.4077,3.418,3.4214,3.4287,3.4319,3.4362,3.4401,3.4489,3.4543,3.4569,3.4614,3.4682,3.474,3.475,3.4773,3.4789,3.4798,3.4712,3.4701,3.469,3.4672,3.4794,3.4795,3.4885,3.4886,3.4887]}]]